[[{"header":{"parameterUnit":"m.s-1","parameterCategory":1,"la1":30.2991,"la2":30.254,"lo1":-89.0895,"lo2":-89.0444,"dy":0.0017,"dx":0.0017,"nx":28,"ny":28,"refTime":"2024-06-28T21:00:00:Z","depth":0,"parameterNumber":2,"parameterNumberName":"U-component_of_WINDS"},"data":[0,0,0,0,0,0,0,0,0,0,0,0,0,0,0,0,0,0,0,0,0,0,0,0,0,0,0,0,0,0,0,0,0,0,0,0,0,0,0,0,0,0,0,0,0,0,0,0,0,0,0,0,0,0,0,0,0,0,-0.3224,-0.3223,0,-0.3148,-0.3147,-0.3146,-0.315,-0.3151,-0.3152,-0.3153,-0.3075,-0.3072,-0.3069,0,0,0,0,0,0,0,0,0,0,0,0,0,-0.3375,-0.3372,-0.3224,-0.3223,-0.3222,-0.3148,-0.3147,-0.3146,-0.315,-0.3151,-0.3152,-0.3154,-0.3076,-0.3072,-0.3068,0,0,0,0,0,0,0,0,0,0,0,0,0,-0.3305,-0.3371,-0.3224,-0.3215,-0.3214,-0.3148,-0.3147,-0.3145,-0.3149,-0.3151,-0.3153,-0.3154,-0.3077,-0.3073,-0.3068,-0.3006,0,0,-0.3054,-0.3052,0,0,0,0,0,0,0,0,-0.3309,-0.3299,-0.3217,-0.3216,-0.3214,-0.316,-0.3171,-0.3099,-0.3149,-0.3174,-0.3153,-0.3155,-0.3102,-0.3095,-0.3077,-0.3003,-0.2999,-0.3053,-0.305,-0.3048,-0.3047,0,0,0,0,0,0,0,-0.3314,-0.3303,-0.3194,-0.3216,-0.3214,-0.3215,-0.3207,-0.3158,-0.313,-0.3172,-0.3172,-0.3163,-0.3101,-0.3082,-0.3075,-0.2998,-0.3053,-0.3049,-0.3046,-0.3045,-0.287,-0.2868,0,0,0,0,0,0,-0.332,-0.3307,-0.3196,-0.3192,-0.3266,-0.3211,-0.3202,-0.3176,-0.313,-0.3125,-0.3161,-0.3163,-0.3089,-0.3081,-0.3073,-0.2997,-0.3049,-0.3044,-0.3041,-0.2872,-0.287,-0.2868,0,0,0,0,0,0,-0.3324,-0.3311,-0.3199,-0.3249,-0.3235,-0.3207,-0.3177,-0.3173,-0.3154,-0.3122,-0.3117,-0.3147,-0.309,-0.3079,-0.3023,-0.2995,-0.3042,-0.3038,-0.2874,-0.2871,-0.2869,-0.2846,0,0,0,0,0,0,-0.3328,-0.3312,-0.3287,-0.3249,-0.3232,-0.315,-0.3175,-0.3171,-0.3146,-0.3147,-0.3107,-0.3102,-0.309,-0.303,-0.3018,-0.2989,-0.3034,-0.2877,-0.2873,-0.287,-0.2849,-0.2843,-0.2838,0,0,0,0,0,-0.3333,-0.3284,-0.3286,-0.3273,-0.3201,-0.3149,-0.3139,-0.3127,-0.3143,-0.3119,-0.3099,-0.3103,-0.3,-0.3024,-0.3011,-0.298,-0.2878,-0.2874,-0.287,-0.2852,-0.2844,-0.2838,0,0,0,0,0,0,-0.332,-0.3278,-0.328,-0.3217,-0.3186,-0.3149,-0.3118,-0.3119,-0.3083,-0.3086,-0.3073,-0.3063,-0.3007,-0.2988,-0.3016,-0.2919,-0.2941,-0.2935,-0.2932,-0.2925,-0.2919,-0.2923,-0.303,0,0,0,0,0,-0.3309,-0.3269,-0.3236,-0.3183,-0.3168,-0.3146,-0.3122,-0.3116,-0.3083,-0.307,-0.3046,-0.3015,-0.2975,-0.2949,-0.2912,-0.2848,-0.2839,-0.282,-0.2815,-0.281,-0.2803,-0.2768,-0.2759,-0.2854,-0.2854,-0.2854,0,0,-0.3287,-0.326,-0.3235,-0.318,-0.3155,-0.3115,-0.3135,-0.3091,-0.306,-0.3063,-0.3008,-0.299,-0.2954,-0.2894,-0.2866,-0.2877,-0.2776,-0.2805,-0.2801,-0.2797,-0.2763,-0.2754,-0.2746,-0.2851,-0.2852,-0.2852,0,0,-0.3226,-0.3202,-0.3155,-0.313,-0.3093,-0.3079,-0.3068,-0.3031,-0.3019,-0.2964,-0.2966,-0.293,-0.2863,-0.2837,-0.2815,-0.2747,-0.2749,-0.2736,-0.2704,-0.267,-0.2662,-0.2656,-0.263,-0.2621,-0.273,-0.273,-0.273,0,-0.3203,-0.3141,-0.3131,-0.3086,-0.3062,-0.3064,-0.3017,-0.2994,-0.2946,-0.2929,-0.2943,-0.2858,-0.2835,-0.2768,-0.2752,-0.2735,-0.2721,-0.2738,-0.2664,-0.2658,-0.2651,-0.2627,-0.2617,-0.2728,-0.2728,-0.2728,-0.2728,0,-0.3114,-0.3072,-0.3039,-0.2993,-0.2965,-0.292,-0.2903,-0.2876,-0.2873,-0.2858,-0.2803,-0.2775,-0.2731,-0.2716,-0.2712,-0.2649,-0.2657,-0.2667,-0.2689,-0.2641,-0.2617,-0.2608,-0.2726,-0.2726,-0.2727,-0.2727,0,0,-0.3039,-0.2989,-0.2977,-0.2957,-0.2917,-0.2884,-0.284,-0.2798,-0.2775,-0.2743,-0.2705,-0.2649,-0.2659,-0.2634,-0.2628,-0.2599,-0.2546,-0.2613,-0.2612,-0.26,-0.2474,-0.2465,-0.2454,-0.2549,-0.2547,-0.2545,-0.2477,0,-0.2972,-0.2892,-0.2882,-0.2811,-0.2772,-0.2775,-0.2737,-0.2708,-0.2694,-0.2659,-0.2644,-0.2604,-0.262,-0.2605,-0.2577,-0.2558,-0.252,-0.2564,-0.2512,-0.251,-0.2518,-0.2442,-0.2432,-0.2368,-0.2468,-0.2466,-0.2465,0,-0.2882,-0.2848,-0.2773,-0.274,-0.2723,-0.2688,-0.2649,-0.2616,-0.2585,-0.2577,-0.255,-0.2548,-0.2503,-0.253,-0.2467,-0.2497,-0.2476,-0.2464,-0.2461,-0.2454,-0.2483,-0.2431,-0.2348,-0.2338,-0.2451,-0.2452,-0.2453,0,-0.2833,-0.2768,-0.2715,-0.2698,-0.2658,-0.2633,-0.2616,-0.2586,-0.2562,-0.2529,-0.2513,-0.2475,-0.2454,-0.2425,-0.2413,-0.2433,-0.2351,-0.2376,-0.2342,-0.2342,-0.2322,-0.2323,-0.2232,-0.2312,-0.2312,-0.2312,-0.2313,0,-0.2758,-0.2711,-0.2692,-0.2659,-0.2608,-0.2599,-0.2548,-0.2532,-0.2506,-0.247,-0.2472,-0.2439,-0.2426,-0.2391,-0.2382,-0.2331,-0.2322,-0.2314,-0.2312,-0.2312,-0.2313,-0.2296,-0.23,-0.231,-0.2311,-0.2311,-0.2311,0,-0.2692,-0.2678,-0.262,-0.2588,-0.2579,-0.2542,-0.2515,-0.2483,-0.2471,-0.2426,-0.2415,-0.2395,-0.2353,-0.234,-0.229,-0.2284,-0.2224,-0.2227,-0.2234,-0.2233,-0.2199,-0.2202,-0.2093,-0.2078,-0.217,-0.2169,-0.2168,0,-0.2644,-0.2608,-0.2573,-0.2549,-0.253,-0.2492,-0.2468,-0.2458,-0.2433,-0.2396,-0.2369,-0.2328,-0.2295,-0.2229,-0.221,-0.2173,-0.2173,-0.2138,-0.2167,-0.2169,-0.2171,-0.2172,-0.2168,-0.2131,-0.213,-0.2129,-0.2129,0,-0.2559,-0.2555,-0.2519,-0.2481,-0.2452,-0.2421,-0.2392,-0.2373,-0.236,-0.2331,-0.2289,-0.2263,-0.2213,-0.2173,-0.2135,-0.2117,-0.212,-0.212,-0.211,-0.2109,-0.2114,-0.2109,-0.2217,-0.2122,-0.2123,-0.2123,-0.2123,-0.2124,-0.25,-0.2468,-0.2439,-0.2399,-0.2377,-0.235,-0.2319,-0.2303,-0.2267,-0.2225,-0.2223,-0.2178,-0.2149,-0.2098,-0.2079,-0.2044,-0.2054,-0.2039,-0.2035,-0.2031,-0.2028,-0.2122,-0.2037,-0.2038,-0.2038,-0.2038,-0.2038,0,-0.2414,-0.2396,-0.236,-0.2319,-0.2288,-0.2295,-0.2264,-0.2238,-0.2198,-0.2171,-0.2139,-0.2091,-0.2052,-0.2031,-0.1993,-0.1969,-0.1969,-0.1959,-0.1959,-0.1955,-0.2022,-0.2034,-0.1959,-0.1959,-0.1959,-0.1959,-0.1959,-0.1959,-0.2365,-0.2313,-0.2305,-0.2241,-0.2223,-0.2178,-0.216,-0.2136,-0.2114,-0.2061,-0.2029,-0.2016,-0.1991,-0.1952,-0.1917,-0.1912,-0.1897,-0.1885,-0.1881,-0.1942,-0.195,-0.1958,-0.1969,-0.1882,-0.1882,-0.1817,-0.1816,-0.1816]},{"header":{"parameterUnit":"m.s-1","parameterCategory":1,"la1":30.2991,"la2":30.254,"lo1":-89.0895,"lo2":-89.0444,"dy":0.0017,"dx":0.0017,"nx":28,"ny":28,"refTime":"2024-06-28T21:00:00:Z","depth":0,"parameterNumber":3,"parameterNumberName":"V-component_of_WINDS"},"data":[0,0,0,0,0,0,0,0,0,0,0,0,0,0,0,0,0,0,0,0,0,0,0,0,0,0,0,0,0,0,0,0,0,0,0,0,0,0,0,0,0,0,0,0,0,0,0,0,0,0,0,0,0,0,0,0,0,0,5.9584,5.9585,0,5.963,5.963,5.9631,5.9528,5.9525,5.9522,5.9518,5.956,5.9564,5.9568,0,0,0,0,0,0,0,0,0,0,0,0,0,5.9404,5.9407,5.9584,5.9585,5.9586,5.963,5.963,5.9631,5.9529,5.9525,5.9521,5.9517,5.9559,5.9564,5.9569,0,0,0,0,0,0,0,0,0,0,0,0,0,5.9469,5.9409,5.9584,5.954,5.9536,5.963,5.963,5.9631,5.953,5.9525,5.952,5.9515,5.9557,5.9563,5.957,5.9707,0,0,5.9589,5.9591,0,0,0,0,0,0,0,0,5.9465,5.9476,5.9546,5.9543,5.9539,5.9568,5.9582,5.9656,5.9531,5.9532,5.9518,5.9513,5.9567,5.9572,5.9591,5.9708,5.971,5.9589,5.9593,5.9596,5.9597,0,0,0,0,0,0,0,5.9461,5.9473,5.9602,5.9547,5.9543,5.9516,5.952,5.9596,5.9576,5.9531,5.9524,5.9531,5.9564,5.9585,5.9591,5.9711,5.9589,5.9595,5.9598,5.9601,5.9942,5.9947,0,0,0,0,0,0,5.9463,5.947,5.9601,5.9604,5.949,5.9523,5.9528,5.9564,5.9575,5.9572,5.9535,5.9526,5.9577,5.9584,5.9592,5.9753,5.9596,5.9601,5.9605,5.9937,5.9943,5.9949,0,0,0,0,0,0,5.9459,5.9475,5.9599,5.9535,5.9549,5.9532,5.9573,5.9567,5.9589,5.9578,5.9574,5.9561,5.9573,5.9583,5.9679,5.9753,5.9604,5.961,5.9931,5.9939,5.9946,6.0076,0,0,0,0,0,0,5.9454,5.9475,5.9528,5.9537,5.9552,5.9687,5.9578,5.9572,5.96,5.9589,5.9601,5.9598,5.957,5.967,5.9685,5.9759,5.9615,5.9924,5.9934,5.9944,6.0065,6.0087,6.0107,0,0,0,0,0,5.9448,5.9562,5.9531,5.9547,5.9619,5.9691,5.97,5.9667,5.9607,5.9659,5.9652,5.9598,5.9743,5.9681,5.9697,5.9774,5.9919,5.9931,5.9943,6.0056,6.0083,6.0106,0,0,0,0,0,0,5.956,5.9562,5.9528,5.9648,5.9671,5.9674,5.9739,5.9697,5.9736,5.9723,5.9679,5.9682,5.9786,5.9789,5.972,5.9906,5.982,5.9836,5.9901,5.9927,5.9947,5.9944,5.962,0,0,0,0,0,5.9599,5.9659,5.9657,5.9763,5.9776,5.9756,5.9786,5.9759,5.978,5.9788,5.9788,5.9809,5.9859,5.9893,5.9938,6.0065,6.0066,6.0126,6.0146,6.0164,6.0177,6.0244,6.027,5.9988,5.9988,5.9988,0,0,5.9679,5.9688,5.9728,5.9786,5.98,5.9862,5.9765,5.9834,5.988,5.9798,5.9889,5.989,5.991,6.0022,6.0071,6.0028,6.0256,6.0179,6.0193,6.0197,6.0259,6.0286,6.0309,5.9996,5.9995,5.9994,0,0,5.9857,5.987,5.996,5.9976,6.0,5.9986,6.0007,6.0018,6.0015,6.0106,6.0046,6.0098,6.0186,6.0203,6.0223,6.0408,6.0359,6.0424,6.0532,6.0597,6.062,6.0639,6.0704,6.0728,6.0438,6.0438,6.0438,0,5.9953,6.0046,6.0011,6.0085,6.0112,6.0043,6.0132,6.0149,6.0186,6.0205,6.0156,6.0265,6.0273,6.0388,6.0433,6.0452,6.0474,6.0422,6.062,6.0639,6.0656,6.0718,6.0743,6.0446,6.0445,6.0444,6.0443,0,6.0163,6.0228,6.0298,6.0337,6.0371,6.0453,6.0428,6.0466,6.0436,6.0427,6.052,6.0528,6.0574,6.0599,6.0569,6.0709,6.0682,6.0627,6.054,6.0692,6.0749,6.0772,6.0457,6.0454,6.0452,6.045,0,0,6.0412,6.0431,6.0457,6.0474,6.0495,6.0544,6.0622,6.0668,6.0702,6.0729,6.0792,6.0868,6.0818,6.0841,6.0813,6.087,6.1016,6.0808,6.0808,6.0846,6.1169,6.121,6.1238,6.0984,6.0988,6.0992,6.1168,0,6.0588,6.0724,6.0694,6.0827,6.0886,6.0822,6.089,6.0909,6.0902,6.095,6.0942,6.0996,6.0926,6.094,6.0994,6.0987,6.108,6.0974,6.1041,6.1044,6.1037,6.1268,6.1311,6.1477,6.119,6.1194,6.1196,0,6.0811,6.0849,6.0989,6.1,6.1024,6.1086,6.1126,6.1173,6.1193,6.1184,6.121,6.1171,6.1246,6.1159,6.1261,6.119,6.1215,6.1216,6.1222,6.1226,6.1129,6.1278,6.1529,6.1554,6.1231,6.1228,6.1226,0,6.0978,6.1064,6.1158,6.1175,6.1191,6.1235,6.1244,6.1259,6.1289,6.1323,6.1342,6.1385,6.1408,6.1441,6.1413,6.1352,6.152,6.143,6.1513,6.1514,6.1551,6.1549,6.1809,6.1569,6.1569,6.1568,6.1568,0,6.1177,6.1265,6.1234,6.1292,6.1388,6.1352,6.1448,6.1448,6.1463,6.1518,6.1465,6.1518,6.1478,6.1528,6.1507,6.1595,6.1605,6.1599,6.1592,6.1604,6.1605,6.1619,6.1607,6.1575,6.1573,6.1572,6.1571,0,6.1379,6.1362,6.1461,6.1469,6.1473,6.1543,6.1548,6.1602,6.1591,6.1663,6.1677,6.1661,6.1716,6.1692,6.175,6.1735,6.1848,6.1826,6.1842,6.1836,6.1921,6.1913,6.2199,6.2234,6.1972,6.1975,6.1977,0,6.1507,6.1574,6.1589,6.1624,6.1637,6.1693,6.1723,6.169,6.1724,6.1752,6.1802,6.1853,6.1892,6.1983,6.1975,6.2019,6.1997,6.2095,6.2003,6.2013,6.1998,6.1994,6.2,6.2113,6.2116,6.2118,6.212,0,6.1736,6.1725,6.1772,6.1817,6.1856,6.1889,6.1917,6.1948,6.1916,6.1956,6.2013,6.2044,6.2104,6.2155,6.2194,6.22,6.2155,6.2149,6.217,6.2182,6.2189,6.2186,6.1891,6.2142,6.214,6.2139,6.2137,6.2136,6.1905,6.1961,6.198,6.2035,6.2053,6.2081,6.2131,6.2128,6.2176,6.2223,6.22,6.2266,6.2284,6.2331,6.2344,6.2394,6.2355,6.2387,6.2394,6.2402,6.2413,6.2182,6.2401,6.24,6.24,6.2399,6.2398,0,6.213,6.214,6.2191,6.2233,6.2275,6.2231,6.226,6.2298,6.2357,6.2378,6.2419,6.2484,6.2533,6.2529,6.2574,6.2615,6.2595,6.2628,6.2624,6.2626,6.2446,6.2422,6.2643,6.2643,6.2643,6.2643,6.2643,6.2643,6.2252,6.2345,6.2336,6.2436,6.2444,6.251,6.253,6.2555,6.2572,6.2648,6.2689,6.2687,6.2698,6.2743,6.2786,6.2783,6.2802,6.2842,6.2832,6.2663,6.2639,6.2616,6.2594,6.2847,6.2847,6.3008,6.301,6.3011]}]]